Location: Dompnac
(44.5644°N, 4.1026°E)
Time: 10:20:29
(UTC+00:00)

ATLAS 3B R/B - Pass Details

Date: 19 September 2020
Orbit: 1016 x 1179 km, 63.8° (Epoch: 28 October)

Event Time Altitude Azimuth Distance (km) Brightness Sun altitude
Rises 18:43:37 0° 319° (NW) 3,798 6.5 -11.0°
Reaches altitude 10° 18:47:08 10° 337° (NNW) 2,867 5.5 -11.6°
Maximum altitude 18:51:48 19° 21° (NNE) 2,296 4.4 -12.4°
Drops below altitude 10° 18:56:33 10° 65° (ENE) 2,938 4.6 -13.2°
Enters shadow 18:56:55 - 67° (ENE) 3,026 4.6 -13.3°
